Location: Courçay
(47.2523°N, 0.8761°E)
Time: 03:46:00
(UTC+00:00)

SJ-12 - Visible Passes

Search period start: 19 February 2026 00:00
Search period end: 01 March 2026 00:00
Orbit: 514 x 525 km, 97.8° (Epoch: 18 February)

Date Brightness Start Highest point End Pass type
(mag) Time Alt. Az. Time Alt. Az. Time Alt. Az.
19 Feb 7.2 18:54:19 10° SW 18:56:34 15° W 18:58:50 10° NW visible
20 Feb 5.4 06:21:31 10° NNE 06:25:06 40° E 06:28:39 10° S visible
20 Feb 6.7 18:39:53 10° SW 18:42:48 21° W 18:45:43 10° NW visible
21 Feb 6.2 06:08:05 10° NE 06:11:23 28° E 06:14:39 10° SSE visible
21 Feb 6.0 18:25:43 10° SSW 18:29:03 29° W 18:32:24 10° NW visible
22 Feb 6.9 05:54:45 10° NE 05:57:36 20° E 06:00:27 10° SE visible
22 Feb 5.2 18:11:42 10° S 18:15:18 41° W 18:18:55 10° NNW visible
23 Feb 7.3 05:41:40 10° NE 05:43:48 14° E 05:45:56 10° SE visible
23 Feb 4.4 17:57:50 10° S 18:01:35 61° W 18:05:21 10° NNW visible
24 Feb 7.8 05:29:37 10° E 05:29:58 10° E 05:30:19 10° E visible
25 Feb 7.4 19:07:27 10° WSW 19:08:41 11° W 19:09:57 10° WNW visible
26 Feb 7.1 18:52:27 10° SW 18:54:49 16° W 18:57:14 10° NW visible
27 Feb 6.6 18:37:59 10° SSW 18:40:59 22° W 18:44:01 10° NW visible
28 Feb 6.4 06:06:19 10° NE 06:09:32 26° E 06:12:44 10° SSE visible
28 Feb 5.9 18:23:47 10° SSW 18:27:10 31° W 18:30:34 10° NNW visible
